Flag for U.S.A. Weather past 2 weeks in West Covina, California, U.S.A.

Now
78 °F

Clear.


Feels Like: 77 °F
Forecast: 53 / 83 °F
Wind: 5 mph from West

Location: Fullerton Municipal Airport

Current Time: Mar 6, 2015 at 6:48:01 PM

Latest Report: Mar 6, 2015 at 5:53 PM


Visibility: 10 mi

Pressure: 29.96 "Hg

Humidity: 13%

Dew point: 24 °F

Location of West CovinaLocation

Historic Weather in West Covina — Graph

°F

West Covina temperature yesterday

Maximum temperature yesterday: 79 °F (at 1:53 PM)
Minimum temperature yesterday: 46 °F (at 5:53 AM)
Average temperature yesterday: 63 °F

Past Weeks' High & Low Weather Summary

 TemperatureHumidityPressure
High87 °F (Mar 6, 1:53 PM)93% (Feb 23, 3:53 AM)30.26 "Hg (Feb 23, 3:53 AM)
Low45 °F (Feb 24, 5:53 AM)6% (Mar 6, 1:53 PM)29.75 "Hg (Feb 27, 4:53 PM)
Average60 °F60%29.97 "Hg
* Reported Feb 19 5:53 PM — Mar 6 5:53 PM, West Covina, Weather by CustomWeather, © 2015

Note: Actual official high and low records may vary slightly from our data, if they occured in-between our weather recording intervals... More about our weather records

Advertising

West Covina weather history for previous 24 hours

 ConditionsComfort  
Time TempWeatherWind HumidityBarometerVisibility
5:53 PM
Fri, Mar 6
78 °FClear.5 mph13%29.96 "Hg10 mi
4:53 PM83 °FSunny.6 mph8%29.95 "Hg10 mi
3:53 PM86 °FSunny.7 mph6%29.96 "Hg10 mi
2:53 PM87 °FSunny.6 mph6%29.98 "Hg10 mi
1:53 PM87 °FSunny.5 mph6%30.00 "Hg10 mi
12:53 PM85 °FSunny.No wind8%30.03 "Hg10 mi
11:53 AM83 °FSunny.5 mph9%30.06 "Hg10 mi
10:53 AM82 °FSunny.N/A10%30.09 "Hg10 mi
9:53 AM79 °FSunny.5 mph10%30.12 "Hg10 mi
8:53 AM71 °FSunny.3 mph20%30.13 "Hg10 mi
7:53 AM60 °FSunny.No wind35%30.13 "Hg10 mi
6:53 AM49 °FSunny.No wind50%30.12 "Hg10 mi
5:53 AM47 °FClear.No wind52%30.12 "Hg10 mi
4:53 AM47 °FClear.No wind52%30.11 "Hg10 mi
3:53 AM49 °FClear.No wind48%30.11 "Hg10 mi
2:53 AM51 °FClear.No wind44%30.11 "Hg10 mi
1:53 AM51 °FClear.No wind44%30.12 "Hg10 mi
12:53 AM54 °FClear.5 mph37%30.13 "Hg10 mi
11:53 PM
Thu, Mar 5
56 °FClear.3 mph33%30.14 "Hg10 mi
10:53 PM64 °FClear.6 mph18%30.14 "Hg10 mi
9:53 PM57 °FClear.No wind34%30.15 "Hg10 mi
8:53 PM62 °FClear.3 mph23%30.16 "Hg10 mi
7:53 PM66 °FClear.5 mph16%30.15 "Hg10 mi
6:53 PM68 °FClear.5 mph15%30.15 "Hg10 mi
Weather by CustomWeather, © 2015

See weather overviewHow to use our weather pages